Tracking 28790 objects as of 19-Apr-2024
HD Live streaming from Space Station
objects crossing your sky now

FENGYUN 1C DEB

Track FENGYUN 1C DEB now!
10-day predictions


NORAD ID: 36697
Int'l Code: 1999-025DZT
Perigee: 474.7 km
Apogee: 626.0 km
Inclination: 98.8 °
Period: 95.5 minutes
Semi major axis: 6921 km
RCS: 0.0105 m2 (small)
Launch date: May 10, 1999
Source: People's Republic of China (PRC)
Launch site: Taiyaun Space Center, China (TSC)

Note: This is SATELLITE DEBRIS
Your satellite tracking list
Your tracking list is empty




NASA's NSSDC Master Catalog

Two Line Element Set (TLE):
1 36697U 99025DZT 24107.42062481  .00052311  00000-0  29722-2 0  9993
2 36697  98.7677 354.0277 0109315 347.1570  12.6874 15.07702793579382
Source of the keplerian elements: AFSPC